Location: Cluny
(50.9333°N, 112.8167°W)
Time: 14:18:23
(UTC-07:00)

Amateur Radio Satellites - All Passes

Search period start: 20 November 2017 13:48
Search period end: 21 November 2017 13:48
Location: Cluny, 50.9333°N, 112.8167°W

Satellite Date Start Highest point End Downlink Frequencies (MHz)
Time Altitude Azimuth
M-CUBED/EXP-1 PRIME 20 Nov 13:57:27 14:01:04 80° 249° (WSW) 14:05:01 437.505
BEESAT 2 20 Nov 14:02:02 14:03:52 13° 249° (WSW) 14:05:40 435.950
AO-7 20 Nov 14:11:01 14:19:08 63° 62° (ENE) 14:27:19 .
BUGSAT 1 20 Nov 14:17:48 14:18:30 10° 274° (W) 14:19:13 437.445
DX 1 20 Nov 14:25:23 14:29:47 70° 103° (ESE) 14:34:09 434.975-435.025
AO-85 20 Nov 14:27:03 14:30:36 22° 245° (WSW) 14:34:20 145.980
50 SAT 20 Nov 14:33:18 14:36:32 69° 288° (WNW) 14:39:44 437.505
DOVE 4 20 Nov 14:35:26 14:37:21 12° 49° (NE) 14:39:17 437.250
MOZHAYETS 4 20 Nov 14:39:16 14:42:01 16° 88° (E) 14:44:47
SPROUT 20 Nov 14:42:14 14:44:58 17° 302° (WNW) 14:47:41 437.525
UKube-1 20 Nov 15:09:14 15:13:33 69° 288° (WNW) 15:17:51 .
ITAMSAT 1 20 Nov 15:12:56 15:18:11 89° 254° (WSW) 15:23:28 435.822/435.867
VELOX 1 20 Nov 15:15:07 15:17:36 15° 305° (NW) 15:20:04 145.980
O/OREOS (USA 219) 20 Nov 15:16:27 15:20:48 41° 306° (NW) 15:25:12 437.305
YUBILEINY 20 Nov 15:17:11 15:24:27 27° 56° (ENE) 15:31:40 435.215
NO-84 20 Nov 15:24:00 15:26:23 16° 130° (SE) 15:28:53 435.350 FM
BEESAT 20 Nov 15:46:28 15:51:05 47° 99° (E) 15:55:39 436.000
ITUPSAT 1 20 Nov 15:55:37 16:00:19 55° 101° (E) 16:04:59 437.325
DX 1 20 Nov 16:02:33 16:05:29 18° 302° (WNW) 16:08:25 434.975-435.025
AO-7 20 Nov 16:04:48 16:12:21 38° 263° (W) 16:20:00 .
DOVE 4 20 Nov 16:08:56 16:13:54 56° 70° (ENE) 16:19:05 437.250
MOZHAYETS 4 20 Nov 16:15:09 16:19:43 74° 286° (WNW) 16:24:15
CUBESAT XI-V 20 Nov 16:24:42 16:29:07 39° 97° (E) 16:33:31 437.345
KAITUO 1B 20 Nov 16:29:06 16:30:54 13° 59° (ENE) 16:32:44 145.475/437.950
KKS-1 20 Nov 16:36:52 16:39:04 13° 87° (E) 16:41:17 437.445
CUTE-I 20 Nov 16:40:41 16:45:16 29° 60° (ENE) 16:49:52 437.470
XW-2D 20 Nov 16:40:52 16:43:50 23° 64° (ENE) 16:46:49 145.860 - 145.880
RS-15 20 Nov 16:46:27 16:46:43 10° 87° (E) 16:46:58 29.354- 29.394
UKube-1 20 Nov 16:47:25 16:48:46 11° 308° (NW) 16:50:08 .
HO-68 20 Nov 16:52:59 16:58:53 29° 52° (NE) 17:04:48 435.675
XW-2B 20 Nov 16:55:17 16:58:34 30° 67° (ENE) 17:01:52 145.730 - 145.750
ITAMSAT 1 20 Nov 16:55:24 16:58:25 15° 273° (W) 17:01:25 435.822/435.867
NO-84 20 Nov 16:59:16 17:03:06 71° 151° (SSE) 17:07:14 435.350 FM
O/OREOS (USA 219) 20 Nov 17:00:28 17:01:32 11° 329° (NNW) 17:02:36 437.305
STARS 20 Nov 17:04:29 17:05:03 10° 85° (E) 17:05:37 437.465
CUTE 1.7 + AOD 2 20 Nov 17:11:14 17:13:42 15° 58° (ENE) 17:16:12 437.475
NUDT-PHONESAT 20 Nov 17:13:10 17:16:27 32° 68° (ENE) 17:19:45 437.300
YUBILEINY 20 Nov 17:13:39 17:22:35 89° 257° (WSW) 17:31:26 435.215
XW-2C 20 Nov 17:20:23 17:24:02 55° 72° (ENE) 17:27:43 145.795 - 145.815
LilacSat-2 20 Nov 17:21:29 17:25:12 61° 72° (ENE) 17:28:56 437.200
BEESAT 20 Nov 17:24:38 17:28:39 28° 299° (WNW) 17:32:39 436.000
XW-2F 20 Nov 17:31:40 17:35:22 69° 73° (ENE) 17:39:05 145.980 - 146.000
ITUPSAT 1 20 Nov 17:34:02 17:37:50 24° 300° (WNW) 17:41:38 437.325
SEEDS 20 Nov 17:42:24 17:45:22 19° 61° (ENE) 17:48:21 437.485
DOVE 4 20 Nov 17:47:43 17:51:54 25° 270° (W) 17:56:15 437.250
AAUSAT CUBESAT 2 20 Nov 17:52:39 17:54:20 12° 56° (NE) 17:56:00 437.432
MOZHAYETS 4 20 Nov 17:54:07 17:56:06 13° 307° (NW) 17:58:05
CUBEBUG 2 20 Nov 17:59:09 18:02:59 28° 64° (ENE) 18:06:45 437.445
KAITUO 1B 20 Nov 18:00:44 18:04:23 71° 257° (WSW) 18:08:06 145.475/437.950
CUBESAT XI-V 20 Nov 18:02:17 18:06:23 31° 296° (WNW) 18:10:30 437.345
AO-73 20 Nov 18:07:29 18:08:30 11° 54° (NE) 18:09:31 145.935
KKS-1 20 Nov 18:11:44 18:16:15 84° 286° (WNW) 18:20:42 437.445
XW-2D 20 Nov 18:14:23 18:17:51 36° 263° (W) 18:21:21 145.860 - 145.880
CUTE-I 20 Nov 18:19:49 18:25:04 53° 259° (W) 18:30:21 437.470
Oscar 11 20 Nov 18:24:13 18:25:37 11° 54° (NE) 18:27:02 .
XW-2B 20 Nov 18:29:33 18:32:44 27° 265° (W) 18:35:58 145.730 - 145.750
NO-84 20 Nov 18:36:44 18:40:39 51° 351° (N) 18:44:47 435.350 FM
STARS 20 Nov 18:37:43 18:42:09 78° 104° (ESE) 18:46:32 437.465
HO-68 20 Nov 18:38:44 18:45:57 82° 252° (WSW) 18:53:13 435.675
STRAND 1 20 Nov 18:42:49 18:45:29 14° 86° (E) 18:48:07 437.568
RS-15 20 Nov 18:44:19 18:55:39 46° 111° (ESE) 19:06:53 29.354- 29.394
CUTE 1.7 + AOD 2 20 Nov 18:44:48 18:49:00 76° 256° (WSW) 18:53:15 437.475
XW-2A 20 Nov 18:44:57 18:47:57 32° 69° (ENE) 18:50:58 145.665 - 145.685
NUDT-PHONESAT 20 Nov 18:47:24 18:50:21 23° 266° (W) 18:53:20 437.300
ZACube-1 20 Nov 18:49:08 18:52:45 27° 64° (ENE) 18:56:18 437.345
XW-2C 20 Nov 18:56:24 18:58:34 15° 271° (W) 19:00:45 145.795 - 145.815
UWE-3 20 Nov 18:56:41 19:01:00 54° 71° (ENE) 19:05:13 435.000/436.395/437.385
LilacSat-2 20 Nov 18:57:54 18:59:52 14° 271° (W) 19:01:50 437.200
XW-2F 20 Nov 19:08:27 19:09:56 12° 272° (W) 19:11:25 145.980 - 146.000
YUBILEINY 20 Nov 19:11:38 19:18:12 24° 284° (WNW) 19:24:46 435.215
SEEDS 20 Nov 19:16:34 19:20:40 57° 259° (W) 19:24:50 437.485
FO-29 20 Nov 19:22:17 19:26:49 16° 79° (E) 19:31:15 435.910
AAUSAT CUBESAT 2 20 Nov 19:24:58 19:29:05 83° 73° (ENE) 19:33:16 437.432
CUBEBUG 2 20 Nov 19:35:08 19:39:28 42° 262° (W) 19:43:42 437.445
AO-73 20 Nov 19:39:44 19:43:59 70° 74° (ENE) 19:48:11 145.935
KKS-1 20 Nov 19:49:49 19:52:06 14° 306° (NW) 19:54:24 437.445
Oscar 11 20 Nov 19:56:43 20:00:59 72° 74° (ENE) 20:05:18 .
DELFI C3 20 Nov 20:01:55 20:04:53 21° 62° (ENE) 20:07:53 145.870
NO-84 20 Nov 20:14:25 20:18:30 53° 12° (NNE) 20:22:42 435.350 FM
STARS 20 Nov 20:15:11 20:17:57 16° 303° (WNW) 20:20:41 437.465
XW-2A 20 Nov 20:18:17 20:20:45 19° 267° (W) 20:23:13 145.665 - 145.685
STRAND 1 20 Nov 20:20:17 20:25:27 86° 104° (ESE) 20:30:34 437.568
ZACube-1 20 Nov 20:24:52 20:28:54 39° 263° (W) 20:32:54 437.345
HO-68 20 Nov 20:29:57 20:34:48 19° 274° (W) 20:39:42 435.675
UWE-3 20 Nov 20:34:29 20:37:45 20° 269° (W) 20:40:58 435.000/436.395/437.385
RS-15 20 Nov 20:55:14 21:07:37 75° 317° (NW) 21:19:49 29.354- 29.394
nSIGHT-1 20 Nov 21:02:39 21:03:51 12° 138° (SE) 21:05:03 .
AAUSAT CUBESAT 2 20 Nov 21:03:30 21:05:08 12° 274° (W) 21:06:46 437.432
FO-29 20 Nov 21:05:29 21:13:23 66° 101° (E) 21:20:54 435.910
ESTCUBE 1 20 Nov 21:08:39 21:09:08 10° 51° (NE) 21:09:37 437.505/2401.250
EO-88 20 Nov 21:12:30 21:16:01 51° 71° (ENE) 21:19:34 145.990 - 145.960
Max Valier Satellite 20 Nov 21:12:56 21:16:34 72° 74° (ENE) 21:20:14 145.860
AO-73 20 Nov 21:18:16 21:20:42 15° 272° (W) 21:23:06 145.935
Oscar 11 20 Nov 21:35:13 21:37:39 15° 272° (W) 21:40:04 .
DELFI C3 20 Nov 21:35:31 21:39:20 47° 261° (W) 21:43:14 145.870
LO-87 20 Nov 21:39:38 21:42:04 17° 62° (ENE) 21:44:29 145.935 - 145.965
ISS 20 Nov 21:43:40 21:46:08 20° 144° (SE) 21:48:37 437.550
SO-50 20 Nov 21:49:18 21:52:41 21° 115° (ESE) 21:56:05 436.795
NO-84 20 Nov 21:51:49 21:56:01 65° 212° (SSW) 22:00:16 435.350 FM
UNISAT 6 20 Nov 21:59:30 22:03:30 37° 97° (E) 22:07:28 437.425
STRAND 1 20 Nov 22:00:32 22:04:00 19° 305° (NW) 22:07:27 437.568
O/OREOS (USA 219) 20 Nov 22:02:58 22:06:46 25° 46° (NE) 22:10:30 437.305
TIGRISAT 20 Nov 22:03:58 22:08:00 37° 97° (E) 22:11:57 435.000
SPROUT 20 Nov 22:29:26 22:31:52 15° 57° (ENE) 22:34:17 437.525
nSIGHT-1 20 Nov 22:36:22 22:39:29 47° 156° (SSE) 22:42:36 .
ESTCUBE 1 20 Nov 22:40:37 22:45:01 58° 70° (ENE) 22:49:27 437.505/2401.250
EO-88 20 Nov 22:47:48 22:49:58 15° 270° (W) 22:52:09 145.990 - 145.960
Max Valier Satellite 20 Nov 22:49:45 22:50:52 11° 273° (W) 22:51:59 145.860
FO-29 20 Nov 22:50:54 22:57:58 38° 302° (WNW) 23:04:51 435.910
VELOX 1 20 Nov 23:03:58 23:07:21 22° 60° (ENE) 23:10:46 145.980
PRISM 20 Nov 23:06:23 23:10:33 63° 102° (ESE) 23:14:41 437.425
RS-15 20 Nov 23:10:42 23:22:20 44° 348° (NNW) 23:33:37 29.354- 29.394
LO-87 20 Nov 23:11:39 23:15:09 48° 261° (W) 23:18:40 145.935 - 145.965
ISS 20 Nov 23:18:58 23:22:14 70° 162° (SSE) 23:25:30 437.550
DUCHIFAT 1 20 Nov 23:23:33 23:24:18 10° 86° (E) 23:25:03 145.980
SO-50 20 Nov 23:28:15 23:32:43 68° 315° (NW) 23:37:15 436.795
EO-79 20 Nov 23:28:53 23:31:26 16° 89° (E) 23:33:59 145.935-145.965
NO-84 20 Nov 23:30:07 23:32:48 16° 230° (SW) 23:35:27 435.350 FM
NANOSAT C BR1 20 Nov 23:32:27 23:34:55 15° 89° (E) 23:37:20 145.865
UNISAT 6 20 Nov 23:36:27 23:40:07 28° 296° (WNW) 23:43:45 437.425
AIST 2D 20 Nov 23:40:07 23:43:35 51° 100° (E) 23:47:02 435.315
TIGRISAT 20 Nov 23:40:55 23:44:34 27° 296° (WNW) 23:48:10 435.000
O/OREOS (USA 219) 20 Nov 23:42:02 23:46:32 58° 248° (WSW) 23:50:58 437.305
POLYITAN 1 20 Nov 23:43:36 23:46:49 21° 92° (E) 23:50:03 437.675
DX 1 20 Nov 23:51:10 23:54:03 18° 57° (ENE) 23:56:58 434.975-435.025
PCSat 20 Nov 23:57:39 00:01:31 20° 107° (ESE) 00:05:25 145.827
SPROUT 21 Nov 00:02:53 00:07:11 83° 256° (WSW) 00:11:30 437.525
QB50P2 21 Nov 00:06:25 00:10:22 38° 97° (E) 00:14:17 145.880/145.840
nSIGHT-1 21 Nov 00:12:26 00:15:40 78° 355° (N) 00:18:53 .
ESTCUBE 1 21 Nov 00:18:58 00:22:12 19° 270° (W) 00:25:26 437.505/2401.250
UKube-1 21 Nov 00:33:03 00:36:39 26° 62° (ENE) 00:40:15 .
FO-29 21 Nov 00:37:54 00:40:53 13° 324° (NW) 00:43:54 435.910
VELOX 1 21 Nov 00:39:06 00:43:27 56° 259° (W) 00:47:53 145.980
PRISM 21 Nov 00:42:33 00:45:24 18° 301° (WNW) 00:48:13 437.425
ISS 21 Nov 00:55:28 00:58:45 76° 2° (N) 01:02:01 437.550
DUCHIFAT 1 21 Nov 00:56:27 01:00:39 85° 103° (ESE) 01:04:49 145.980
EO-79 21 Nov 01:03:28 01:07:39 65° 287° (WNW) 01:11:47 145.935-145.965
50 SAT 21 Nov 01:04:33 01:07:48 81° 74° (ENE) 01:11:04 437.505
NANOSAT C BR1 21 Nov 01:06:54 01:11:05 67° 287° (WNW) 01:15:13 145.865
SO-50 21 Nov 01:10:30 01:13:58 21° 337° (NNW) 01:17:29 436.795
AIST 2D 21 Nov 01:14:14 01:16:23 16° 298° (WNW) 01:18:33 435.315
POLYITAN 1 21 Nov 01:18:49 01:22:51 46° 291° (WNW) 01:26:51 437.675
BEESAT 21 Nov 01:22:06 01:25:08 17° 55° (NE) 01:28:08 436.000
DX 1 21 Nov 01:25:23 01:29:44 72° 256° (WSW) 01:34:09 434.975-435.025
RS-15 21 Nov 01:26:21 01:38:05 49° 21° (NNE) 01:49:15 29.354- 29.394
Oscar 19 21 Nov 01:28:58 01:33:33 31° 95° (E) 01:38:06 437.125/150
ITUPSAT 1 21 Nov 01:31:10 01:34:32 19° 57° (ENE) 01:37:55 437.325
PCSat 21 Nov 01:38:52 01:44:18 82° 307° (NW) 01:49:47 145.827
QB50P2 21 Nov 01:42:29 01:46:01 27° 296° (WNW) 01:49:33 145.880/145.840
SPROUT 21 Nov 01:42:52 01:43:46 11° 275° (W) 01:44:40 437.525
MOZHAYETS 4 21 Nov 01:45:27 01:49:18 27° 63° (ENE) 01:53:09
nSIGHT-1 21 Nov 01:48:44 01:51:58 80° 193° (SSW) 01:55:09 .
BUGSAT 1 21 Nov 01:50:09 01:54:13 83° 102° (ESE) 01:58:15 437.445
Gurwin Techsat 1B 21 Nov 01:51:57 01:56:51 36° 96° (E) 02:01:43 435.225
CUBESAT XI-V 21 Nov 01:58:56 02:00:36 12° 52° (NE) 02:02:15 437.345
UKube-1 21 Nov 02:08:22 02:12:29 42° 261° (W) 02:16:38 .
AO-7 21 Nov 02:09:24 02:12:45 13° 81° (E) 02:16:05 .
ISS 21 Nov 02:31:59 02:35:13 57° 202° (SSW) 02:38:26 437.550
DUCHIFAT 1 21 Nov 02:33:33 02:35:43 14° 303° (WNW) 02:37:53 145.980
EO-79 21 Nov 02:42:06 02:42:34 10° 307° (NW) 02:43:04 145.935-145.965
BEESAT 3 21 Nov 02:45:12 02:48:10 20° 116° (ESE) 02:51:10 437.485
NANOSAT C BR1 21 Nov 02:45:15 02:45:59 10° 307° (NW) 02:46:42 145.865
SO-50 21 Nov 02:53:25 02:56:03 15° 2° (N) 02:58:42 436.795
BEESAT 21 Nov 02:57:29 03:02:17 87° 259° (W) 03:07:05 436.000
M-CUBED/EXP-1 PRIME 21 Nov 03:04:22 03:08:31 36° 103° (ESE) 03:12:47 437.505
ITUPSAT 1 21 Nov 03:07:05 03:11:52 74° 255° (WSW) 03:16:40 437.325
Oscar 19 21 Nov 03:08:07 03:13:02 45° 294° (WNW) 03:17:55 437.125/150
ITAMSAT 1 21 Nov 03:21:18 03:25:19 22° 91° (E) 03:29:18 435.822/435.867
MOZHAYETS 4 21 Nov 03:21:56 03:26:17 43° 262° (W) 03:30:39
PCSat 21 Nov 03:24:05 03:28:30 25° 330° (NNW) 03:32:58 145.827
nSIGHT-1 21 Nov 03:25:15 03:27:53 24° 214° (SW) 03:30:31 .
BUGSAT 1 21 Nov 03:26:57 03:29:00 14° 304° (WNW) 03:31:03 437.445
Gurwin Techsat 1B 21 Nov 03:31:54 03:36:52 41° 295° (WNW) 03:41:49 435.225
CUBESAT XI-V 21 Nov 03:32:33 03:37:06 67° 72° (ENE) 03:41:42 437.345
KKS-1 21 Nov 03:38:55 03:42:32 24° 61° (ENE) 03:46:10 437.445
RS-15 21 Nov 03:39:53 03:51:58 88° 231° (SW) 04:03:22 29.354- 29.394
BEESAT 2 21 Nov 03:55:31 03:59:03 30° 119° (ESE) 04:02:38 435.950
AO-7 21 Nov 03:59:16 04:07:29 57° 103° (ESE) 04:15:40 .
STARS 21 Nov 04:04:06 04:07:16 20° 59° (ENE) 04:10:27 437.465
DOVE 4 21 Nov 04:04:47 04:06:49 12° 82° (E) 04:08:49 437.250
ISS 21 Nov 04:09:15 04:11:11 15° 220° (SW) 04:13:06 437.550
BEESAT 3 21 Nov 04:21:24 04:25:22 60° 315° (NW) 04:29:21 437.485
YUBILEINY 21 Nov 04:27:01 04:33:23 23° 75° (ENE) 04:39:46 435.215
SO-50 21 Nov 04:34:17 04:38:03 24° 26° (NNE) 04:41:50 436.795
BEESAT 21 Nov 04:38:35 04:40:47 13° 274° (W) 04:42:58 436.000
M-CUBED/EXP-1 PRIME 21 Nov 04:38:47 04:42:51 36° 300° (WNW) 04:47:04 437.505
AO-85 21 Nov 04:45:34 04:49:09 36° 121° (ESE) 04:52:56 145.980
ITUPSAT 1 21 Nov 04:49:22 04:50:33 11° 275° (W) 04:51:44 437.325
ITAMSAT 1 21 Nov 05:00:03 05:05:15 64° 290° (WNW) 05:10:22 435.822/435.867
PCSat 21 Nov 05:10:53 05:13:52 15° 356° (N) 05:16:51 145.827
CUBESAT XI-V 21 Nov 05:11:52 05:14:57 18° 271° (W) 05:18:04 437.345
KKS-1 21 Nov 05:14:29 05:18:50 49° 260° (W) 05:23:13 437.445
BEESAT 2 21 Nov 05:32:48 05:36:40 43° 319° (NW) 05:40:35 435.950
STARS 21 Nov 05:38:47 05:43:12 64° 258° (WSW) 05:47:37 437.465
DOVE 4 21 Nov 05:40:11 05:45:28 74° 103° (ESE) 05:50:29 437.250
FO-29 21 Nov 05:41:28 05:45:26 16° 40° (NE) 05:49:34 435.910
XW-2D 21 Nov 05:42:07 05:44:37 17° 90° (E) 05:47:06 145.860 - 145.880
AO-7 21 Nov 05:52:20 06:00:07 46° 305° (NW) 06:07:55 .
RS-15 21 Nov 05:53:17 06:02:50 30° 257° (WSW) 06:12:01 29.354- 29.394
XW-2B 21 Nov 05:56:32 05:59:34 22° 93° (E) 06:02:35 145.730 - 145.750
BEESAT 3 21 Nov 06:00:56 06:03:40 17° 337° (NNW) 06:06:25 437.485
HO-68 21 Nov 06:02:37 06:06:35 15° 83° (E) 06:10:30 435.675
STRAND 1 21 Nov 06:02:44 06:07:21 34° 63° (ENE) 06:11:59 437.568
NUDT-PHONESAT 21 Nov 06:11:46 06:14:44 22° 93° (E) 06:17:43 437.300
SO-50 21 Nov 06:14:30 06:19:08 84° 47° (NE) 06:23:50 436.795
YUBILEINY 21 Nov 06:20:09 06:28:56 87° 99° (E) 06:37:50 435.215
XW-2C 21 Nov 06:21:44 06:25:21 40° 98° (E) 06:28:59 145.795 - 145.815
LilacSat-2 21 Nov 06:23:37 06:27:20 45° 99° (E) 06:31:02 437.200
CUTE 1.7 + AOD 2 21 Nov 06:25:46 06:28:01 14° 87° (E) 06:30:17 437.475
AO-85 21 Nov 06:25:49 06:29:32 37° 323° (NW) 06:33:30 145.980
CUTE-I 21 Nov 06:31:31 06:36:38 42° 98° (E) 06:41:42 437.470
XW-2F 21 Nov 06:32:26 06:36:08 49° 100° (E) 06:39:50 145.980 - 146.000
ITAMSAT 1 21 Nov 06:41:16 06:43:46 14° 311° (NW) 06:46:15 435.822/435.867
PCSat 21 Nov 06:55:29 06:59:25 20° 22° (NNE) 07:03:20 145.827
SEEDS 21 Nov 06:55:50 06:58:42 17° 89° (E) 07:01:34 437.485
KAITUO 1B 21 Nov 07:00:20 07:04:07 80° 103° (ESE) 07:07:53 145.475/437.950
BEESAT 2 21 Nov 07:12:56 07:15:22 15° 341° (NNW) 07:17:48 435.950
XW-2D 21 Nov 07:15:22 07:19:04 50° 288° (WNW) 07:22:46 145.860 - 145.880
DOVE 4 21 Nov 07:18:40 07:22:34 22° 302° (WNW) 07:26:22 437.250
CUBEBUG 2 21 Nov 07:20:48 07:24:25 27° 94° (E) 07:27:58 437.445
FO-29 21 Nov 07:22:08 07:28:43 51° 63° (ENE) 07:36:00 435.910
UNISAT 6 21 Nov 07:30:19 07:31:10 10° 52° (NE) 07:32:01 437.425
XW-2B 21 Nov 07:30:20 07:33:52 37° 291° (WNW) 07:37:24 145.730 - 145.750
XW-2A 21 Nov 07:34:14 07:36:35 17° 92° (E) 07:38:55 145.665 - 145.685
TIGRISAT 21 Nov 07:34:34 07:35:30 11° 53° (NE) 07:36:27 435.000
BEESAT 3 21 Nov 07:41:29 07:42:44 11° 0° (N) 07:44:01 437.485
STRAND 1 21 Nov 07:41:36 07:46:28 42° 262° (W) 07:51:22 437.568
NUDT-PHONESAT 21 Nov 07:45:17 07:48:40 34° 292° (WNW) 07:52:04 437.300
AO-7 21 Nov 07:46:11 07:50:55 17° 329° (NNW) 07:55:39 .
HO-68 21 Nov 07:48:27 07:55:40 69° 104° (ESE) 08:02:49 435.675
SO-50 21 Nov 07:55:58 07:59:04 18° 247° (WSW) 08:02:10 436.795
XW-2C 21 Nov 07:56:24 07:59:19 21° 296° (WNW) 08:02:15 145.795 - 145.815
LilacSat-2 21 Nov 07:58:31 08:01:20 20° 297° (WNW) 08:04:09 437.200
CUTE 1.7 + AOD 2 21 Nov 08:00:06 08:04:23 76° 285° (WNW) 08:08:39 437.475
XW-2F 21 Nov 08:07:18 08:09:56 18° 298° (WNW) 08:12:34 145.980 - 146.000
ZACube-1 21 Nov 08:07:47 08:11:20 26° 94° (E) 08:14:51 437.345
AO-85 21 Nov 08:08:40 08:11:08 15° 347° (NNW) 08:13:42 145.980
CUTE-I 21 Nov 08:11:44 08:16:37 36° 297° (WNW) 08:21:27 437.470
UWE-3 21 Nov 08:17:17 08:21:24 58° 101° (E) 08:25:29 435.000/436.395/437.385
YUBILEINY 21 Nov 08:19:45 08:27:00 28° 303° (WNW) 08:34:20 435.215
PRISM 21 Nov 08:27:30 08:29:25 13° 55° (NE) 08:31:20 437.425
SEEDS 21 Nov 08:30:34 08:34:45 59° 288° (WNW) 08:38:56 437.485
KAITUO 1B 21 Nov 08:35:55 08:37:33 12° 302° (WNW) 08:39:10 145.475/437.950
AAUSAT CUBESAT 2 21 Nov 08:37:04 08:41:17 79° 104° (ESE) 08:45:29 437.432
PCSat 21 Nov 08:38:40 08:44:01 54° 46° (NE) 08:49:20 145.827
BEESAT 2 21 Nov 08:53:09 08:54:43 12° 6° (N) 08:56:18 435.950
CUBEBUG 2 21 Nov 08:57:17 09:01:07 35° 293° (WNW) 09:04:54 437.445
AO-73 21 Nov 08:58:25 09:02:34 75° 103° (ESE) 09:06:43 145.935
UNISAT 6 21 Nov 09:02:33 09:07:02 61° 72° (ENE) 09:11:27 437.425
XW-2A 21 Nov 09:06:18 09:09:26 36° 290° (WNW) 09:12:33 145.665 - 145.685
TIGRISAT 21 Nov 09:06:52 09:11:21 62° 72° (ENE) 09:15:46 435.000
FO-29 21 Nov 09:07:27 09:13:52 43° 266° (W) 09:21:01 435.910
DELFI C3 21 Nov 09:07:57 09:10:28 16° 89° (E) 09:12:57 145.870
Oscar 11 21 Nov 09:14:41 09:19:02 76° 104° (ESE) 09:23:21 .
BEESAT 3 21 Nov 09:19:01 09:21:48 18° 24° (NNE) 09:24:33 437.485
HO-68 21 Nov 09:36:44 09:42:58 33° 306° (NW) 09:49:10 435.675
CUTE 1.7 + AOD 2 21 Nov 09:37:56 09:39:29 12° 305° (NW) 09:41:01 437.475
ZACube-1 21 Nov 09:43:54 09:47:42 36° 293° (WNW) 09:51:30 437.345
AO-85 21 Nov 09:50:44 09:53:15 15° 12° (NNE) 09:55:51 145.980
UWE-3 21 Nov 09:54:36 09:57:29 18° 300° (WNW) 10:00:21 435.000/436.395/437.385
PRISM 21 Nov 09:59:53 10:04:01 87° 71° (ENE) 10:08:13 437.425
EO-88 21 Nov 10:09:29 10:12:50 32° 97° (E) 10:16:09 145.990 - 145.960
Max Valier Satellite 21 Nov 10:11:19 10:14:53 48° 99° (E) 10:18:27 145.860
AAUSAT CUBESAT 2 21 Nov 10:13:48 10:16:11 15° 302° (WNW) 10:18:35 437.432
AIST 2D 21 Nov 10:18:45 10:22:00 39° 70° (ENE) 10:25:17 435.315
DUCHIFAT 1 21 Nov 10:18:51 10:21:33 17° 59° (ENE) 10:24:15 145.980
PCSat 21 Nov 10:22:25 10:27:13 33° 247° (WSW) 10:32:01 145.827
EO-79 21 Nov 10:25:34 10:28:56 23° 62° (ENE) 10:32:18 145.935-145.965
NANOSAT C BR1 21 Nov 10:28:47 10:32:04 22° 62° (ENE) 10:35:22 145.865
BEESAT 2 21 Nov 10:30:37 10:33:51 22° 29° (NNE) 10:37:04 435.950
AO-73 21 Nov 10:35:54 10:38:18 15° 302° (WNW) 10:40:42 145.935
POLYITAN 1 21 Nov 10:40:29 10:44:13 31° 65° (ENE) 10:47:57 437.675
UNISAT 6 21 Nov 10:40:56 10:44:07 19° 270° (W) 10:47:16 437.425
DELFI C3 21 Nov 10:41:37 10:45:34 58° 288° (WNW) 10:49:30 145.870
TIGRISAT 21 Nov 10:45:17 10:48:25 18° 270° (W) 10:51:33 435.000
Oscar 11 21 Nov 10:51:58 10:54:39 16° 302° (WNW) 10:57:19 .
BEESAT 3 21 Nov 10:56:05 11:00:04 65° 47° (NE) 11:03:58 437.485
QB50P2 21 Nov 11:03:18 11:07:27 55° 70° (ENE) 11:11:36 145.880/145.840
BUGSAT 1 21 Nov 11:10:52 11:13:23 16° 58° (ENE) 11:15:53 437.445
Oscar 19 21 Nov 11:14:28 11:17:13 15° 52° (NE) 11:20:00 437.125/150
AO-7 21 Nov 11:25:50 11:29:26 14° 24° (NNE) 11:33:03 .
HO-68 21 Nov 11:27:23 11:28:34 10° 329° (NNW) 11:29:46 435.675
AO-85 21 Nov 11:30:52 11:34:56 32° 35° (NE) 11:39:15 145.980
PRISM 21 Nov 11:38:27 11:39:54 12° 273° (W) 11:41:22 437.425
Gurwin Techsat 1B 21 Nov 11:40:29 11:44:02 18° 54° (NE) 11:47:35 435.225
EO-88 21 Nov 11:43:21 11:46:21 24° 295° (WNW) 11:49:18 145.990 - 145.960
SPROUT 21 Nov 11:45:10 11:46:50 12° 86° (E) 11:48:30 437.525
Max Valier Satellite 21 Nov 11:45:54 11:48:24 18° 298° (WNW) 11:50:53 145.860
DUCHIFAT 1 21 Nov 11:52:32 11:56:45 69° 258° (WSW) 12:00:57 145.980
AIST 2D 21 Nov 11:52:58 11:55:21 17° 269° (W) 11:57:46 435.315
EO-79 21 Nov 12:00:22 12:04:28 46° 261° (W) 12:08:34 145.935-145.965
NANOSAT C BR1 21 Nov 12:03:26 12:07:32 48° 261° (W) 12:11:38 145.865
ESTCUBE 1 21 Nov 12:04:23 12:08:55 64° 102° (ESE) 12:13:25 437.505/2401.250
LO-87 21 Nov 12:06:28 12:10:03 80° 285° (WNW) 12:13:34 145.935 - 145.965
BEESAT 2 21 Nov 12:08:00 12:12:05 85° 228° (SW) 12:16:06 435.950
POLYITAN 1 21 Nov 12:16:07 12:19:58 33° 264° (W) 12:23:49 437.675
M-CUBED/EXP-1 PRIME 21 Nov 12:22:39 12:24:35 14° 48° (NE) 12:26:34 437.505
VELOX 1 21 Nov 12:24:28 12:27:45 20° 91° (E) 12:31:00 145.980
BEESAT 3 21 Nov 12:34:27 12:37:11 18° 246° (WSW) 12:39:53 437.485
QB50P2 21 Nov 12:40:33 12:43:34 19° 269° (W) 12:46:36 145.880/145.840
BUGSAT 1 21 Nov 12:44:03 12:48:14 74° 256° (WSW) 12:52:25 437.445
Oscar 19 21 Nov 12:50:37 12:55:43 73° 72° (ENE) 13:00:51 437.125/150
ITAMSAT 1 21 Nov 13:08:34 13:10:28 12° 48° (NE) 13:12:22 435.822/435.867
DX 1 21 Nov 13:09:46 13:12:06 14° 88° (E) 13:14:25 434.975-435.025
AO-85 21 Nov 13:11:04 13:15:36 59° 234° (SW) 13:20:28 145.980
AO-7 21 Nov 13:12:36 13:19:48 35° 50° (NE) 13:27:03 .
Gurwin Techsat 1B 21 Nov 13:17:58 13:23:18 89° 72° (ENE) 13:28:40 435.225
SPROUT 21 Nov 13:19:04 13:23:21 86° 282° (WNW) 13:27:35 437.525
